Atlantic, IA

3:50 PM CDT on September 30, 2016 (GMT -0500)
Atlantic Municipal

Weather History for KAIO - April, 2014

Change the Weather History Date:

Tuesday, April 1, 2014

  Actual Average Record
Temperature  
Mean Temperature 34 °F -  
Max Temperature 44 °F 54 °F 89 °F (2012)
Min Temperature 23 °F 33 °F 17 °F (2013)
Degree Days  
Heating Degree Days 32    
Moisture  
Dew Point 18 °F    
Average Humidity 55    
Maximum Humidity 74    
Minimum Humidity 37    
Precipitation  
Precipitation 0.00 in - - ()
Sea Level Pressure  
Sea Level Pressure 30.03 in    
Wind  
Wind Speed 15 mph (NW)    
Max Wind Speed 28 mph    
Max Gust Speed 36 mph    
Visibility 10 miles    
Events      
Averages and records for this station are not official NWS values.
T = Trace of Precipitation, MM = Missing Value Source: NWS Daily Summary

Daily Weather History Graph

Daily Weather History Graph

Search for Another Location

Airport or City:

Trip Planner

Search our weather history database for the weather conditions in past years. The results will help you decide how hot, cold, wet, or windy it might be!

Date:

Astronomy

Apr. 01, 2014 Rise Set
Actual Time 7:03 AM CDT 7:45 PM CDT
Civil Twilight 6:35 AM CDT 8:13 PM CDT
Nautical Twilight 6:02 AM CDT 8:46 PM CDT
Astronomical Twilight 5:28 AM CDT 9:20 PM CDT
Moon 8:05 AM CDT (4/1) 10:10 PM CDT (4/1)
Length of Visible Light 13h 38m
Length of Day
12h 42m
Waxing Crescent, 5% of the Moon is Illuminated
Apr 1
Waxing Crescent
Apr 7
First Quarter
Apr 15
Full
Apr 22
Last Quarter
Apr 29
New

Hourly Weather History & Observations

Time (CDT) Temp. Windchill Dew Point Humidity Pressure Visibility Wind Dir Wind Speed Gust Speed Precip Events Conditions
12:15 AM 26.6 °F 11.1 °F 14.0 °F 59% 29.89 in 10.0 mi WNW 26.5 mph 32.2 mph N/A   Overcast
12:35 AM 26.6 °F 11.1 °F 14.0 °F 59% 29.90 in 10.0 mi West 26.5 mph 34.5 mph N/A   Overcast
1:15 AM 26.6 °F 11.1 °F 14.0 °F 59% 29.91 in 10.0 mi WNW 26.5 mph 34.5 mph N/A   Overcast
1:35 AM 26.6 °F 13.1 °F 15.8 °F 64% 29.92 in 10.0 mi West 19.6 mph 28.8 mph N/A   Overcast
1:55 AM 26.6 °F 12.4 °F 15.8 °F 64% 29.92 in 10.0 mi WNW 21.9 mph 29.9 mph N/A   Overcast
2:15 AM 26.6 °F 12.7 °F 15.8 °F 64% 29.92 in 10.0 mi WNW 20.7 mph - N/A   Overcast
2:35 AM 26.6 °F 12.4 °F 15.8 °F 64% 29.92 in 10.0 mi WNW 21.9 mph 29.9 mph N/A   Overcast
2:55 AM 26.6 °F 10.8 °F 15.8 °F 64% 29.92 in 10.0 mi WNW 27.6 mph 35.7 mph N/A   Overcast
3:15 AM 24.8 °F 11.1 °F 15.8 °F 69% 29.92 in 10.0 mi WNW 18.4 mph 26.5 mph N/A   Overcast
3:35 AM 24.8 °F 10.7 °F 15.8 °F 69% 29.92 in 10.0 mi WNW 19.6 mph 26.5 mph N/A   Overcast
3:55 AM 24.8 °F 11.9 °F 15.8 °F 69% 29.96 in 10.0 mi West 16.1 mph 27.6 mph N/A   Overcast
4:15 AM 24.8 °F 11.1 °F 15.8 °F 69% 29.97 in 10.0 mi WNW 18.4 mph 29.9 mph N/A   Overcast
4:35 AM 23.0 °F 10.1 °F 14.0 °F 68% 29.97 in 10.0 mi WNW 15.0 mph 21.9 mph N/A   Overcast
4:55 AM 23.0 °F 9.2 °F 15.8 °F 74% 29.95 in 10.0 mi WNW 17.3 mph 24.2 mph N/A   Mostly Cloudy
5:15 AM 23.0 °F 9.2 °F 15.8 °F 74% 29.95 in 10.0 mi NW 17.3 mph 24.2 mph N/A   Mostly Cloudy
5:35 AM 23.0 °F 11.1 °F 15.8 °F 74% 29.98 in 10.0 mi WNW 12.7 mph - N/A   Overcast
5:55 AM 23.0 °F 10.6 °F 15.8 °F 74% 30.00 in 10.0 mi WNW 13.8 mph - N/A   Overcast
6:15 AM 23.0 °F 11.7 °F 15.8 °F 74% 29.99 in 10.0 mi WNW 11.5 mph - N/A   Overcast
6:35 AM 23.0 °F 13.1 °F 15.8 °F 74% 30.00 in 10.0 mi WNW 9.2 mph - N/A   Mostly Cloudy
6:55 AM 23.0 °F 17.0 °F 15.8 °F 74% 30.01 in 10.0 mi WNW 4.6 mph - N/A   Scattered Clouds
7:15 AM 23.0 °F 13.9 °F 15.8 °F 74% 30.01 in 10.0 mi NW 8.1 mph - N/A   Clear
7:35 AM 23.0 °F 13.9 °F 15.8 °F 74% 30.02 in 10.0 mi WNW 8.1 mph - N/A   Clear
7:55 AM 23.0 °F 13.9 °F 15.8 °F 74% 30.03 in 10.0 mi WNW 8.1 mph 15.0 mph N/A   Clear
8:15 AM 24.8 °F 14.0 °F 15.8 °F 69% 30.05 in 10.0 mi NW 11.5 mph - N/A   Clear
8:35 AM 24.8 °F 12.4 °F 15.8 °F 69% 30.05 in 10.0 mi NW 15.0 mph - N/A   Clear
8:55 AM 26.6 °F 16.2 °F 15.8 °F 64% 30.06 in 10.0 mi WNW 11.5 mph - N/A   Clear
9:15 AM 26.6 °F 14.7 °F 15.8 °F 64% 30.07 in 10.0 mi WNW 15.0 mph - N/A   Clear
9:35 AM 28.4 °F 16.6 °F 15.8 °F 59% 30.08 in 10.0 mi WNW 16.1 mph - N/A   Clear
9:55 AM 30.2 °F 20.2 °F 15.8 °F 55% 30.07 in 10.0 mi NW 12.7 mph 20.7 mph N/A   Clear
10:15 AM 30.2 °F 18.9 °F 17.6 °F 60% 30.08 in 10.0 mi WNW 16.1 mph - N/A   Clear
10:35 AM 32.0 °F 21.2 °F 17.6 °F 55% 30.09 in 10.0 mi WNW 16.1 mph - N/A   Clear
10:55 AM 32.0 °F 22.1 °F 17.6 °F 55% 30.08 in 10.0 mi WNW 13.8 mph - N/A   Clear
11:15 AM 33.8 °F 26.4 °F 17.6 °F 52% 30.07 in 10.0 mi NW 9.2 mph 17.3 mph N/A   Clear
11:35 AM 33.8 °F 25.3 °F 17.6 °F 52% 30.07 in 10.0 mi NW 11.5 mph 19.6 mph N/A   Clear
11:55 AM 35.6 °F 27.1 °F 17.6 °F 48% 30.06 in 10.0 mi NNW 12.7 mph - N/A   Clear
12:15 PM 35.6 °F 26.6 °F 17.6 °F 48% 30.04 in 10.0 mi NNW 13.8 mph - N/A   Clear
12:35 PM 37.4 °F 28.9 °F 19.4 °F 48% 30.04 in 10.0 mi North 13.8 mph 20.7 mph N/A   Clear
12:55 PM 37.4 °F 32.1 °F 17.6 °F 45% 30.07 in 10.0 mi Variable 6.9 mph 16.1 mph N/A   Clear
1:15 PM 37.4 °F 30.3 °F 17.6 °F 45% 30.08 in 10.0 mi West 10.4 mph - N/A   Clear
1:35 PM 37.4 °F 32.8 °F 17.6 °F 45% 30.08 in 10.0 mi WSW 5.8 mph - N/A   Clear
1:55 PM 39.2 °F 35.0 °F 19.4 °F 45% 30.08 in 10.0 mi WSW 5.8 mph 11.5 mph N/A   Clear
2:15 PM 39.2 °F 32.0 °F 17.6 °F 42% 30.08 in 10.0 mi West 11.5 mph - N/A   Clear
2:35 PM 39.2 °F 33.0 °F 19.4 °F 45% 30.07 in 10.0 mi WSW 9.2 mph - N/A   Clear
2:55 PM 41.0 °F 35.2 °F 19.4 °F 42% 30.06 in 10.0 mi West 9.2 mph - N/A   Clear
3:15 PM 41.0 °F 35.2 °F 19.4 °F 42% 30.05 in 10.0 mi NNW 9.2 mph - N/A   Clear
3:35 PM 41.0 °F 37.1 °F 19.4 °F 42% 30.05 in 10.0 mi NNW 5.8 mph - N/A   Clear
3:55 PM 42.8 °F 40.1 °F 19.4 °F 39% 30.05 in 10.0 mi NW 4.6 mph - N/A   Clear
4:15 PM 42.8 °F 39.3 °F 19.4 °F 39% 30.05 in 10.0 mi Variable 5.8 mph - N/A   Scattered Clouds
4:35 PM 42.8 °F 38.0 °F 19.4 °F 39% 30.04 in 10.0 mi NNW 8.1 mph - N/A   Scattered Clouds
4:55 PM 44.6 °F 40.2 °F 21.2 °F 39% 30.03 in 10.0 mi North 8.1 mph 15.0 mph N/A   Clear
5:15 PM 44.6 °F 42.2 °F 19.4 °F 37% 30.02 in 10.0 mi Variable 4.6 mph - N/A   Clear
5:35 PM 44.6 °F 40.7 °F 21.2 °F 39% 30.03 in 10.0 mi NNE 6.9 mph - N/A   Clear
5:55 PM 44.6 °F 41.4 °F 21.2 °F 39% 30.04 in 10.0 mi North 5.8 mph - N/A   Clear
6:15 PM 44.6 °F 41.4 °F 21.2 °F 39% 30.03 in 10.0 mi North 5.8 mph - N/A   Clear
6:35 PM 44.6 °F 40.7 °F 21.2 °F 39% 30.04 in 10.0 mi North 6.9 mph - N/A   Clear
6:55 PM 44.6 °F 40.7 °F 21.2 °F 39% 30.04 in 10.0 mi North 6.9 mph - N/A   Partly Cloudy
7:15 PM 42.8 °F 36.6 °F 21.2 °F 42% 30.04 in 10.0 mi NNE 11.5 mph - N/A   Mostly Cloudy
7:30 PM 41.0 °F 35.8 °F 21.2 °F 45% 30.05 in 10.0 mi NNE 8.1 mph - N/A   Mostly Cloudy
7:55 PM 39.2 °F 33.0 °F 21.2 °F 49% 30.05 in 10.0 mi NNE 9.2 mph - N/A   Mostly Cloudy
8:15 PM 39.2 °F 35.0 °F 19.4 °F 45% 30.07 in 10.0 mi NE 5.8 mph - N/A   Overcast
8:35 PM 37.4 °F 31.4 °F 21.2 °F 52% 30.06 in 10.0 mi NE 8.1 mph - N/A   Overcast
8:55 PM 37.4 °F 32.1 °F 19.4 °F 48% 30.08 in 10.0 mi NE 6.9 mph - N/A   Overcast
9:15 PM 37.4 °F 32.8 °F 21.2 °F 52% 30.08 in 10.0 mi NE 5.8 mph - N/A   Overcast
9:35 PM 37.4 °F 33.8 °F 21.2 °F 52% 30.07 in 10.0 mi NNE 4.6 mph - N/A   Overcast
9:55 PM 37.4 °F 32.8 °F 21.2 °F 52% 30.07 in 10.0 mi NE 5.8 mph - N/A   Overcast
10:15 PM 37.4 °F 32.8 °F 21.2 °F 52% 30.07 in 10.0 mi NE 5.8 mph - N/A   Overcast
10:35 PM 37.4 °F 34.9 °F 21.2 °F 52% 30.07 in 10.0 mi NE 3.5 mph - N/A   Overcast
10:55 PM 37.4 °F 34.9 °F 21.2 °F 52% 30.07 in 10.0 mi North 3.5 mph - N/A   Overcast
11:15 PM 35.6 °F 31.7 °F 21.2 °F 56% 30.07 in 10.0 mi North 4.6 mph - N/A   Overcast
11:35 PM 35.6 °F 29.9 °F 23.0 °F 60% 30.07 in 10.0 mi North 6.9 mph - N/A   Overcast
11:55 PM 35.6 °F 30.7 °F 23.0 °F 60% 30.07 in 10.0 mi NNE 5.8 mph - N/A   Overcast